EW1931 Weather Reports


time (UTC)temp
F
wind
direction
speed
knots
gust
knots
rain 1hr
in
rain 24hr
in
rain mn
in
humidity
%
barometer
mb
20260902103044 57 201 10.4 12.2 0.00 0.00 0.00 60 1003.9
20260902101538 58 202 7.8 12.2 0.00 0.00 0.00 59 1003.9
20260902100020 58 189 10.4 12.2 0.00 0.00 0.00 58 1004.0
20260902094517 58 185 8.7 10.4 0.00 0.00 0.00 57 1004.0
20260902093058 59 171 8.7 11.3 0.00 0.00 0.00 55 1004.3
20260902091556 60 166 7.0 8.7 0.00 0.00 0.00 55 1004.1
20260902090044 60 166 7.0 9.6 0.00 0.00 0.00 53 1004.2
20260902084543 62 175 8.7 10.4 0.00 0.00 0.00 51 1004.4
20260902083044 61 172 7.8 11.3 0.00 0.00 0.00 52 1004.5
20260902081542 60 190 7.0 9.6 0.00 0.00 0.00 54 1004.7
20260902080040 60 196 5.2 8.7 0.00 0.00 0.00 51 1004.7
20260902074541 61 145 7.0 9.6 0.00 0.00 0.00 51 1004.5
20260902073036 62 123 8.7 10.4 0.00 0.00 0.00 50 1004.3
20260902071534 62 128 9.6 11.3 0.00 0.00 0.00 49 1004.3
20260902070013 63 134 7.8 9.6 0.00 0.00 0.00 48 1004.4
20260902064510 64 144 7.8 8.7 0.00 0.00 0.00 47 1004.5
20260902063058 65 141 7.0 8.7 0.00 0.00 0.00 46 1004.7
20260902061551 65 150 6.1 7.8 0.00 0.00 0.00 46 1004.8
20260902060032 65 141 6.1 8.7 0.00 0.00 0.00 46 1004.8
20260902054538 65 142 7.8 10.4 0.00 0.00 0.00 46 1004.9
20260902053014 64 146 7.8 10.4 0.00 0.00 0.00 46 1004.9
20260902051512 65 134 7.8 10.4 0.00 0.00 0.00 45 1005.0
20260902044554 65 127 7.8 9.6 0.00 0.00 0.00 45 1005.0
20260902043043 65 121 7.8 10.4 0.00 0.00 0.00 44 1005.1
20260902041532 66 105 6.1 9.6 0.00 0.00 0.00 44 1005.1
20260902040013 66 126 7.8 9.6 0.00 0.00 0.00 43 1005.2
20260902034511 67 146 7.8 9.6 0.00 0.00 0.00 43 1005.4
20260902033051 68 138 7.0 8.7 0.00 0.00 0.00 40 1005.3
20260902031550 70 137 6.1 7.8 0.00 0.00 0.00 38 1005.4
20260902030030 70 132 6.1 7.8 0.00 0.00 0.00 38 1005.4
20260902024529 70 134 7.0 7.8 0.00 0.00 0.00 37 1005.3
20260902023012 70 129 6.1 7.0 0.00 0.00 0.00 36 1005.2
20260902021512 72 134 5.2 7.8 0.00 0.00 0.00 35 1005.2
20260902020108 74 140 5.2 7.0 0.00 0.00 0.00 32 1005.2
20260902014554 76 127 7.8 10.4 0.00 0.00 0.00 30 1005.1
20260902013040 78 115 7.0 8.7 0.00 0.00 0.00 28 1005.1
20260902011539 80 121 5.2 9.6 0.00 0.00 0.00 26 1005.1
20260902010017 82 140 7.8 11.3 0.00 0.00 0.00 24 1005.1
20260902004518 83 139 7.8 13.0 0.00 0.00 0.00 23 1005.2
20260902003059 83 111 7.8 13.9 0.00 0.00 0.00 23 1005.2
20260902001558 84 132 7.8 11.3 0.00 0.00 0.00 22 1005.1
20260902000040 84 162 7.8 12.2 0.00 0.00 0.00 21 1005.2
20260901234538 84 158 8.7 13.9 0.00 0.00 0.00 21 1005.4
20260901233020 84 162 9.6 13.9 0.00 0.00 0.00 21 1005.4
20260901231523 85 141 9.6 13.9 0.00 0.00 0.00 21 1005.6
20260901230105 84 166 7.8 13.0 0.00 0.00 0.00 21 1005.8
20260901224555 83 173 7.8 12.2 0.00 0.00 0.00 22 1006.0
20260901223044 82 125 8.7 13.0 0.00 0.00 0.00 23 1006.1
20260901221535 82 148 10.4 15.6 0.00 0.00 0.00 24 1006.2
20260901220016 83 161 9.6 15.6 0.00 0.00 0.00 23 1006.3
20260901214515 83 122 9.6 13.9 0.00 0.00 0.00 23 1006.5
20260901213055 82 128 10.4 15.6 0.00 0.00 0.00 23 1006.6
20260901211555 84 150 11.3 14.8 0.00 0.00 0.00 22 1006.8
20260901210037 83 135 13.0 17.4 0.00 0.00 0.00 23 1006.9
20260901204539 83 129 11.3 18.2 0.00 0.00 0.00 22 1007.0
20260901203023 83 165 10.4 18.2 0.00 0.00 0.00 22 1007.1
20260901201513 83 169 11.3 20.0 0.00 0.00 0.00 23 1007.3
20260901200053 83 175 11.3 18.2 0.00 0.00 0.00 24 1007.5
20260901194555 81 117 15.6 20.0 0.00 0.00 0.00 25 1007.6
20260901193035 81 142 14.8 19.1 0.00 0.00 0.00 26 1007.9
20260901191530 81 148 16.5 20.9 0.00 0.00 0.00 25 1007.9
20260901190015 80 142 14.8 19.1 0.00 0.00 0.00 26 1008.0
20260901184529 80 172 14.8 20.0 0.00 0.00 0.00 25 1008.1
20260901183012 80 105 13.0 20.9 0.00 0.00 0.00 27 1008.2
20260901181509 78 122 13.0 19.1 0.00 0.00 0.00 30 1008.4
20260901180006 77 126 14.8 21.7 0.00 0.00 0.00 31 1008.5
20260901174518 78 148 14.8 21.7 0.00 0.00 0.00 30 1008.6
20260901173003 77 175 16.5 24.3 0.00 0.00 0.00 30 1008.8
20260901171612 77 150 16.5 21.7 0.00 0.00 0.00 30 1008.7
20260901170039 74 180 13.9 21.7 0.00 0.00 0.00 35 1008.8
20260901164540 70 153 6.1 9.6 0.00 0.00 0.00 41 1009.1
20260901163012 69 164 5.2 8.7 0.00 0.00 0.00 43 1009.1
20260901161511 68 136 7.0 10.4 0.00 0.00 0.00 44 1009.3
20260901160117 67 157 2.6 5.2 0.00 0.00 0.00 45 1009.3
20260901154553 66 197 4.3 7.0 0.00 0.00 0.00 47 1009.6
20260901153105 65 164 4.3 8.7 0.00 0.00 0.00 48 1009.7
20260901151533 64 140 4.3 6.1 0.00 0.00 0.00 51 1009.8
20260901150033 62 9 0.0 1.7 0.00 0.00 0.00 56 1009.8
20260901144516 59 9 1.7 3.5 0.00 0.00 0.00 63 1009.7
20260901143019 57 9 1.7 5.2 0.00 0.00 0.00 68 1009.7
20260901141557 55 9 2.6 4.3 0.00 0.00 0.00 71 1009.7
20260901140057 53 9 2.6 4.3 0.00 0.00 0.00 75 1009.4
20260901134540 51 9 2.6 4.3 0.00 0.00 0.00 78 1009.4
20260901133037 49 9 3.5 5.2 0.00 0.00 0.00 79 1009.6
20260901131519 48 342 3.5 5.2 0.00 0.00 0.00 78 1009.5
20260901130025 48 342 2.6 4.3 0.00 0.00 0.00 78 1009.6
20260901124605 48 342 2.6 5.2 0.00 0.00 0.00 78 1009.7
20260901123115 48 9 3.5 6.1 0.00 0.00 0.00 77 1009.6
20260901121545 48 348 4.3 6.1 0.00 0.00 0.00 77 1009.7
20260901120049 47 10 4.3 7.0 0.00 0.00 0.00 78 1009.7
20260901114523 47 9 6.1 7.8 0.00 0.00 0.00 77 1009.8
20260901113022 47 5 6.1 7.0 0.00 0.00 0.00 77 1010.0
20260901111503 47 11 5.2 7.0 0.00 0.00 0.00 78 1010.1
20260901110002 47 30 4.3 6.1 0.00 0.00 0.00 77 1010.0
20260901104548 49 36 4.3 6.1 0.00 0.00 0.00 75 1009.9